Theta_e
316 316 315 314 312 307 301 291 284 293 291 279 269 274 276 284 282 284 281 278 275 271 270 266 270 272 276 281 280 273 279 272 267 270 275 276 277 274 273 266 269 274 273 272
316 316 315 314 310 306 296 288 287 293 289 275 274 276 281 283 283 282 282 280 280 276 270 269 270 275 280 282 280 275 276 266 260 267 272 275 275 278 278 271 272 270 269 272
315 315 315 313 309 305 296 289 282 284 286 283 281 278 279 280 284 283 283 281 281 276 271 275 269 275 280 282 281 285 282 270 264 264 269 271 271 274 276 270 268 272 274 276
314 315 314 312 309 306 297 289 285 284 278 280 282 282 280 280 279 282 283 280 280 278 270 271 271 275 277 279 282 280 278 264 266 270 273 272 272 272 273 271 273 271 274 276
312 314 314 312 309 306 295 286 284 284 281 283 281 283 278 280 280 281 280 278 281 279 274 276 271 274 274 275 277 277 277 265 272 266 272 273 271 273 274 274 274 275 276 277
310 312 314 313 307 305 294 292 291 289 284 282 281 280 281 281 282 282 283 282 280 279 279 278 277 278 278 278 275 273 273 268 262 259 269 269 266 274 277 275 277 275 274 280
309 311 313 313 307 307 297 292 292 287 283 283 282 282 282 281 282 280 281 282 280 280 280 279 277 275 278 278 277 279 271 271 264 260 261 260 275 274 276 275 277 279 281 283
307 309 311 313 307 309 301 295 294 291 285 285 283 282 282 282 282 281 281 281 281 281 278 272 264 263 265 263 274 276 280 275 259 256 259 267 273 277 277 275 276 282 280 280
306 308 310 312 308 309 305 297 302 297 287 284 286 283 284 280 281 280 280 282 281 279 275 266 263 264 258 259 262 277 279 277 262 256 254 258 272 277 280 281 273 281 279 278
306 308 309 312 310 309 306 298 301 297 289 287 287 284 283 285 284 280 279 280 279 279 269 261 263 264 261 262 261 266 266 270 263 261 257 263 273 276 281 269 274 281 279 280
305 307 309 311 309 308 307 296 301 302 291 286 288 288 285 284 284 280 280 280 278 270 269 267 264 261 263 261 265 267 265 265 260 259 259 261 274 278 276 278 281 280 278 281
304 306 308 310 309 308 307 292 296 293 288 284 286 285 286 286 288 284 282 282 278 279 269 265 263 260 260 260 262 271 265 270 267 268 269 276 276 278 281 282 281 279 279 280
304 306 307 309 310 308 307 294 293 290 284 283 285 283 285 288 286 287 282 281 282 279 277 269 266 266 268 261 262 266 270 272 271 272 274 275 278 279 280 281 281 281 281 281
304 306 307 309 310 308 307 295 298 294 287 281 279 286 283 286 287 286 284 282 280 278 275 267 264 266 272 267 269 268 270 272 268 270 275 276 278 278 281 281 280 280 280 281
304 306 307 309 309 308 300 297 298 295 293 278 277 282 283 286 285 284 284 283 281 278 273 266 268 270 270 268 267 266 271 271 271 271 275 275 276 277 277 280 279 279 279 279
304 304 304 309 308 302 298 286 293 292 290 282 276 281 280 282 282 281 280 279 275 275 272 265 268 274 272 261 259 271 273 273 275 275 273 275 276 276 274 276 276 275 277 277
303 303 304 306 305 301 292 288 292 294 290 279 273 274 280 282 282 280 278 277 273 275 268 264 269 269 268 264 262 274 273 276 274 273 276 274 276 276 277 276 274 271 269 268
301 301 302 305 304 302 290 294 297 293 286 282 273 270 275 281 277 276 279 276 276 268 266 267 265 267 267 265 272 267 267 266 269 273 272 272 270 270 268 267 268 267 268 268
300 301 300 302 289 285 288 297 294 290 286 276 273 270 269 279 276 276 277 278 275 271 266 264 265 261 265 273 273 268 270 272 271 267 264 262 266 268 265 264 264 268 265 263
299 298 287 283 285 298 296 289 285 285 279 277 272 273 271 276 275 272 273 271 269 266 266 268 265 266 272 276 276 270 269 272 266 265 264 262 264 266 265 268 269 270 271 267
288 284 281 286 296 287 285 282 283 281 276 274 272 274 272 276 273 272 274 269 265 265 263 263 259 262 268 269 274 278 270 270 270 265 266 276 273 273 269 265 266 267 266 267
287 286 287 285 285 284 281 280 280 281 274 268 272 273 275 273 275 271 268 266 264 263 258 260 263 270 270 265 264 262 268 271 271 266 268 267 271 272 273 271 268 266 265 262
288 286 282 283 282 277 275 274 275 268 268 270 271 270 272 271 270 265 266 265 262 259 262 264 269 272 268 265 257 258 255 264 264 262 257 257 259 255 267 268 261 267 264 262
284 281 276 279 275 278 274 273 275 270 271 273 273 268 272 269 268 265 262 254 258 256 259 267 274 272 270 263 257 257 262 264 268 267 264 262 262 262 255 258 261 265 265 262
283 282 277 276 268 263 260 262 267 270 278 273 270 270 270 266 264 260 257 256 258 262 268 272 273 271 265 263 258 261 262 264 267 265 267 264 261 261 261 254 254 258 262 262
279 276 272 270 271 271 268 270 274 279 278 277 278 272 273 267 265 260 263 265 265 271 268 273 268 268 265 265 260 264 261 262 264 265 264 264 262 261 262 252 252 257 262 263
276 274 272 270 275 275 272 273 276 282 280 276 276 273 271 263 260 262 263 267 273 272 270 267 265 267 267 266 259 260 264 262 262 262 262 263 258 255 256 260 257 254 256 259
Wind_Speed
23 24 25 27 29 26 7 3 2 1 2 4 1 3 6 4 4 2 2 4 4 6 6 3 2 4 5 3 3 4 3 4 6 8 3 3 1 4 4 4 5 4 5 11
19 24 26 29 33 29 7 3 3 1 1 5 3 3 1 3 5 5 5 4 1 3 5 1 3 4 2 2 5 5 4 3 5 11 6 3 2 3 2 1 0 8 4 11
18 24 26 32 38 23 9 4 4 3 1 2 7 6 4 4 2 3 4 4 4 4 2 2 5 4 2 2 3 3 6 3 8 9 7 2 6 6 7 5 4 4 11 21
17 18 29 35 38 32 6 4 4 3 6 6 5 6 7 6 7 1 4 1 6 7 4 1 4 2 2 1 2 3 4 4 4 9 17 9 14 17 12 10 13 6 10 17
18 17 22 35 37 32 5 8 7 2 2 4 10 8 10 11 5 9 6 5 9 7 7 8 10 7 4 6 3 5 1 4 3 7 4 3 10 17 16 15 12 16 19 22
20 20 18 31 40 28 5 2 4 5 2 3 7 7 7 11 10 4 2 8 6 6 8 6 2 2 5 6 8 6 5 1 3 8 6 10 5 7 6 4 6 6 6 11
24 20 21 29 44 32 5 4 6 7 4 5 5 6 5 9 9 8 4 6 5 2 9 10 7 8 8 6 3 2 5 1 1 6 8 5 6 4 6 7 11 8 11 12
28 21 25 28 42 34 5 6 7 5 5 6 3 7 4 8 5 3 5 2 1 8 2 6 6 6 6 5 3 2 3 3 1 1 3 11 7 3 4 4 7 4 5 10
28 25 24 28 45 41 9 7 3 6 7 11 10 7 5 6 5 3 3 4 3 5 3 5 5 5 5 3 6 3 4 3 5 1 2 6 6 4 2 5 5 4 4 6
29 26 23 27 38 39 14 5 5 6 5 4 12 7 9 7 5 5 5 6 3 3 3 4 4 5 1 3 9 8 3 3 6 4 5 13 11 5 2 5 6 4 3 3
26 26 23 27 38 43 21 2 11 9 5 3 5 10 9 5 4 7 7 6 1 3 3 5 5 4 7 1 4 8 10 10 6 3 1 10 9 5 7 4 2 3 3 1
27 27 24 27 38 41 28 4 3 5 6 3 2 3 3 2 4 9 9 2 6 6 5 0 4 3 2 3 4 1 4 9 8 13 12 5 7 5 3 3 4 3 2 2
23 25 23 23 34 39 29 6 7 6 5 3 3 3 1 4 4 2 7 2 5 4 2 6 3 3 5 5 8 4 6 5 5 1 6 17 16 12 5 6 6 4 4 4
25 27 24 23 32 39 28 6 8 6 6 5 2 1 4 2 3 4 2 5 7 7 3 3 4 4 3 4 3 4 5 8 7 8 14 11 14 10 6 5 6 6 5 5
24 17 23 23 29 36 12 6 3 3 7 5 3 3 3 3 6 8 5 8 7 3 3 3 3 2 4 1 2 7 9 10 9 11 8 3 4 1 0 8 7 7 7 5
22 16 8 21 32 33 10 4 1 3 6 8 4 1 3 4 11 12 7 4 5 3 4 3 2 1 3 4 5 9 12 7 6 5 4 5 2 3 2 6 6 4 6 4
21 15 10 9 34 16 9 8 10 16 6 7 5 3 2 1 3 3 3 4 3 2 2 1 3 1 3 3 6 6 11 16 7 3 6 2 5 6 7 7 6 5 4 3
7 12 8 14 34 13 5 2 28 15 9 5 6 2 3 2 2 4 1 2 1 5 2 0 3 1 2 8 17 3 1 1 3 10 6 3 2 4 3 4 5 4 5 4
2 7 3 14 2 5 4 21 14 8 7 7 5 9 8 5 3 3 2 1 2 1 2 1 3 2 10 16 9 7 13 11 7 5 6 4 4 6 4 4 2 5 4 4
1 4 4 3 2 33 14 7 4 3 3 3 4 3 5 5 3 2 4 0 3 3 2 2 3 9 11 20 15 8 9 13 10 8 2 3 6 10 9 11 8 7 7 6
3 3 3 5 20 5 3 5 5 4 4 1 3 3 7 1 4 5 1 4 1 3 4 4 3 9 11 6 14 14 11 13 16 4 2 15 9 12 10 7 8 7 7 8
5 8 8 3 3 3 7 5 4 4 8 4 5 6 4 4 3 5 1 4 2 3 1 3 6 11 6 3 6 6 10 14 14 9 8 7 9 10 12 9 9 8 7 6
5 5 4 3 2 5 6 7 3 4 6 8 7 7 5 4 4 5 3 4 3 1 1 7 10 6 4 6 4 6 4 6 6 7 2 4 4 3 8 8 5 9 8 7
4 6 7 5 5 5 7 5 7 4 9 15 8 7 6 4 4 3 7 2 2 3 2 10 6 5 5 4 3 4 9 11 10 10 8 7 7 7 4 5 7 9 10 9
5 5 5 5 4 3 2 2 4 4 15 9 7 7 6 3 6 3 6 3 6 8 9 6 6 5 1 3 4 8 7 10 11 7 11 8 7 7 5 4 4 5 6 9
4 4 5 1 4 2 2 4 11 9 11 4 4 7 5 2 7 5 9 8 9 7 6 6 3 2 4 4 6 7 4 4 7 8 6 7 8 7 6 3 4 5 8 10
3 3 4 2 1 4 3 5 5 13 4 5 5 6 5 5 4 2 6 8 6 5 5 3 3 3 4 4 3 5 7 7 7 7 7 7 6 5 4 6 6 5 4 4
Wind_Direction
221 204 191 175 155 145 132 141 134 174 169 71 353 182 185 167 149 170 96 108 118 168 167 136 166 190 199 133 138 146 167 172 275 254 259 281 265 224 152 127 301 268 268 270
227 211 191 171 154 148 121 114 101 9 263 152 221 294 167 196 145 181 161 152 128 146 169 70 201 225 199 171 161 163 186 287 335 344 4 13 246 189 183 106 77 238 273 277
238 219 195 171 154 149 97 129 128 336 333 277 144 145 204 191 228 152 137 126 108 109 69 353 198 219 199 155 185 185 159 175 178 204 218 109 287 273 279 161 242 268 247 287
244 226 187 173 160 152 106 138 194 180 196 231 170 157 144 144 179 190 173 111 212 167 135 263 231 241 187 143 217 129 149 229 202 257 267 272 268 266 258 209 230 251 274 300
252 227 213 176 164 150 101 140 148 134 283 165 137 169 208 175 177 156 213 203 186 180 163 192 198 150 201 180 162 146 88 273 315 288 300 171 273 266 258 245 248 251 265 282
240 235 214 188 163 154 131 216 110 101 153 193 140 199 184 194 145 239 150 166 132 192 229 152 52 70 105 155 147 163 152 135 34 271 335 309 322 230 208 239 207 201 271 297
238 234 211 193 172 176 118 175 121 117 178 231 200 152 142 174 193 151 139 136 136 158 118 91 46 44 58 57 54 123 123 129 117 276 338 5 245 283 218 228 258 240 268 291
238 227 224 196 184 186 140 160 143 141 171 175 115 152 136 97 109 82 119 77 34 159 80 76 26 341 23 343 356 292 186 164 287 141 249 295 303 202 167 157 284 214 262 297
233 226 226 204 186 195 177 175 166 121 128 210 125 145 213 147 149 99 72 59 86 71 70 82 169 228 195 295 5 342 143 135 123 60 143 226 241 139 99 116 294 197 234 298
225 222 221 211 186 191 184 158 200 118 141 164 136 167 184 157 121 117 134 161 137 41 104 101 169 239 243 204 161 174 156 194 208 194 250 284 253 217 138 78 241 209 205 291
231 220 215 213 187 188 189 138 196 173 137 169 172 152 152 136 162 147 149 101 258 57 148 150 203 157 208 102 183 174 165 164 200 123 207 288 177 93 180 191 165 165 168 215
228 218 216 209 188 190 178 123 116 62 80 102 71 51 82 94 122 123 183 129 154 159 98 216 100 158 115 167 246 154 242 193 180 188 214 248 206 236 177 162 185 170 157 178
218 216 212 220 190 188 186 138 143 88 103 55 104 150 63 71 34 61 126 219 167 173 132 148 176 171 133 168 240 196 237 178 225 116 260 232 242 247 218 205 216 156 153 170
213 218 208 211 184 185 177 151 167 98 99 118 143 164 47 19 58 78 40 125 87 96 88 118 150 153 161 210 204 191 198 144 192 264 279 266 261 237 216 212 162 137 144 164
218 192 206 200 184 176 124 91 154 116 134 116 118 108 11 63 95 79 92 123 107 129 91 99 210 124 117 2 20 238 187 188 179 221 225 173 245 357 335 194 171 166 154 155
183 172 157 178 172 141 127 85 40 131 116 113 134 51 36 56 90 86 66 54 71 87 129 190 268 329 125 137 231 249 205 223 189 204 170 183 91 122 168 146 159 148 155 149
167 149 156 181 148 148 149 182 156 142 92 98 101 88 76 63 89 71 71 57 82 79 114 107 140 214 102 130 235 216 203 220 203 189 123 223 196 205 168 138 135 113 111 123
141 150 88 145 154 115 62 22 135 113 91 83 115 100 131 231 132 112 63 97 89 20 137 104 124 25 78 255 239 243 271 22 227 203 203 185 92 87 106 99 131 134 158 160
286 105 18 137 32 110 112 117 98 55 92 128 131 148 174 165 90 103 92 297 111 92 139 244 98 214 225 233 229 190 197 197 206 150 134 125 171 194 166 124 125 162 191 173
340 153 130 126 252 125 116 35 68 83 70 64 104 127 128 129 153 114 118 287 135 165 245 114 194 255 260 260 230 196 201 193 140 107 197 189 235 195 192 203 189 188 184 165
90 149 83 135 135 82 96 126 144 121 113 138 126 129 128 217 126 125 304 147 115 155 237 155 269 269 243 243 247 221 185 181 200 188 182 188 184 184 189 210 209 194 183 191
158 111 87 109 108 116 132 146 128 162 158 158 143 135 123 114 121 108 194 116 85 211 108 79 261 248 254 249 261 253 202 185 196 193 187 192 178 173 185 188 192 193 183 168
136 78 99 126 113 111 162 138 119 131 171 169 159 129 119 107 81 74 119 122 170 66 110 233 236 260 271 242 231 258 232 182 155 162 158 134 174 167 172 183 193 172 178 184
108 133 134 166 162 193 197 181 146 149 128 144 144 108 113 128 102 139 98 256 107 69 257 237 242 239 241 253 245 174 193 183 186 185 173 180 175 189 186 195 168 161 181 181
97 123 131 181 97 55 156 171 102 118 143 138 115 77 95 110 106 58 114 75 223 211 226 229 241 229 217 267 226 221 211 173 183 160 179 183 175 178 192 213 182 155 135 159
97 87 98 38 83 134 77 98 117 141 144 138 63 103 99 121 125 122 211 141 216 233 218 229 232 238 204 235 247 191 192 190 158 160 167 157 170 176 191 144 170 167 164 174
101 101 41 96 30 94 121 115 157 164 137 114 108 116 173 112 68 252 191 207 221 213 237 246 214 231 258 198 269 238 158 163 158 160 163 156 128 113 111 167 206 175 179 168